Location: Newark
(44.9861°N, 0.2536°E)
Time: 22:39:19
(UTC+00:00)

HuskySat-1 - Pass Details

Date: 15 July 2020
Orbit: 457 x 471 km, 51.6° (Epoch: 10 August)

Event Time Altitude Azimuth Distance (km) Brightness Sun altitude
Exits shadow 22:37:56 32° 71° (ENE) 812 ? -20.8°
Drops below altitude 10° 22:40:03 10° 63° (ENE) 1,616 ? -20.9°
Sets 22:42:12 0° 61° (ENE) 2,491 ? -21.0°
